| time (UTC) | temp C | wind direction | speed KPH | gust KPH | rain 1hr cm | rain 24hr cm | rain mn cm | humidity % | barometer mb |
| 20260510190453 | 11 | 38 | 8.0 | 25.7 | 0.00 | 0.00 | 0.00 | 62 | 1013.0 |
| 20260510185952 | 11 | 58 | 16.1 | 25.7 | 0.00 | 0.00 | 0.00 | 62 | 1012.9 |
| 20260510185451 | 11 | 34 | 22.5 | 25.7 | 0.00 | 0.00 | 0.00 | 62 | 1013.0 |
| 20260510184951 | 11 | 71 | 12.9 | 25.7 | 0.00 | 0.00 | 0.00 | 62 | 1013.0 |
| 20260510184453 | 11 | 33 | 19.3 | 25.7 | 0.00 | 0.00 | 0.00 | 62 | 1013.0 |
| 20260510183951 | 11 | 39 | 14.5 | 22.5 | 0.00 | 0.00 | 0.00 | 62 | 1013.0 |
| 20260510183452 | 11 | 67 | 9.7 | 22.5 | 0.00 | 0.00 | 0.00 | 62 | 1013.0 |
| 20260510182951 | 11 | 67 | 8.0 | 20.9 | 0.00 | 0.00 | 0.00 | 63 | 1013.0 |
| 20260510182452 | 11 | 19 | 3.2 | 20.9 | 0.00 | 0.00 | 0.00 | 63 | 1013.0 |
| 20260510180951 | 12 | 46 | 9.7 | 20.9 | 0.00 | 0.00 | 0.00 | 61 | 1013.1 |
| 20260510180452 | 12 | 51 | 11.3 | 24.1 | 0.00 | 0.00 | 0.00 | 61 | 1013.1 |
| 20260510175952 | 12 | 360 | 9.7 | 24.1 | 0.00 | 0.00 | 0.00 | 61 | 1013.2 |
| 20260510174951 | 12 | 26 | 16.1 | 25.7 | 0.00 | 0.00 | 0.00 | 62 | 1013.2 |
| 20260510174452 | 12 | 81 | 17.7 | 20.9 | 0.00 | 0.00 | 0.00 | 62 | 1013.2 |
| 20260510172451 | 12 | 36 | 3.2 | 22.5 | 0.00 | 0.00 | 0.00 | 63 | 1013.3 |
| 20260510171451 | 12 | 56 | 11.3 | 22.5 | 0.00 | 0.00 | 0.00 | 62 | 1013.4 |
| 20260510170953 | 12 | 61 | 9.7 | 22.5 | 0.00 | 0.00 | 0.00 | 63 | 1013.4 |
| 20260510170452 | 12 | 53 | 9.7 | 22.5 | 0.00 | 0.00 | 0.00 | 61 | 1013.5 |
| 20260510165951 | 13 | 80 | 6.4 | 30.6 | 0.00 | 0.00 | 0.00 | 62 | 1013.5 |
| 20260510165451 | 12 | 82 | 3.2 | 30.6 | 0.00 | 0.00 | 0.00 | 64 | 1013.6 |
| 20260510164951 | 12 | 65 | 4.8 | 22.5 | 0.00 | 0.00 | 0.00 | 62 | 1013.6 |
| 20260510164452 | 12 | 36 | 11.3 | 22.5 | 0.00 | 0.00 | 0.00 | 62 | 1013.7 |
| 20260510163951 | 12 | 59 | 4.8 | 24.1 | 0.00 | 0.00 | 0.00 | 62 | 1013.8 |
| 20260510163451 | 12 | 52 | 11.3 | 24.1 | 0.00 | 0.00 | 0.00 | 63 | 1013.8 |
| 20260510162952 | 12 | 44 | 24.1 | 30.6 | 0.00 | 0.00 | 0.00 | 64 | 1013.9 |
| 20260510161452 | 12 | 59 | 4.8 | 22.5 | 0.00 | 0.00 | 0.00 | 65 | 1013.9 |
| 20260510160952 | 12 | 90 | 12.9 | 22.5 | 0.00 | 0.00 | 0.00 | 64 | 1014.0 |
| 20260510160452 | 12 | 66 | 3.2 | 29.0 | 0.00 | 0.00 | 0.00 | 65 | 1014.1 |
| 20260510155952 | 12 | 53 | 8.0 | 29.0 | 0.00 | 0.00 | 0.00 | 65 | 1014.1 |
| 20260510155451 | 12 | 38 | 17.7 | 29.0 | 0.00 | 0.00 | 0.00 | 65 | 1014.2 |
| 20260510154951 | 12 | 75 | 20.9 | 24.1 | 0.00 | 0.00 | 0.00 | 66 | 1014.2 |
| 20260510154451 | 12 | 40 | 24.1 | 24.1 | 0.00 | 0.00 | 0.00 | 66 | 1014.3 |
| 20260510153952 | 12 | 68 | 8.0 | 20.9 | 0.00 | 0.00 | 0.00 | 66 | 1014.3 |
| 20260510153452 | 12 | 26 | 9.7 | 24.1 | 0.00 | 0.00 | 0.00 | 66 | 1014.4 |
| 20260510152952 | 12 | 69 | 14.5 | 24.1 | 0.00 | 0.00 | 0.00 | 67 | 1014.5 |
| 20260510152451 | 12 | 39 | 19.3 | 30.6 | 0.00 | 0.00 | 0.00 | 68 | 1014.5 |
| 20260510151951 | 12 | 45 | 4.8 | 30.6 | 0.00 | 0.00 | 0.00 | 67 | 1014.5 |
| 20260510150952 | 12 | 49 | 6.4 | 20.9 | 0.00 | 0.00 | 0.00 | 68 | 1014.6 |
| 20260510145952 | 12 | 80 | 4.8 | 22.5 | 0.00 | 0.00 | 0.00 | 67 | 1014.7 |
| 20260510145451 | 12 | 39 | 9.7 | 20.9 | 0.00 | 0.00 | 0.00 | 68 | 1014.8 |
| 20260510144951 | 12 | 20 | 12.9 | 20.9 | 0.00 | 0.00 | 0.00 | 69 | 1014.7 |
| 20260510144452 | 12 | 73 | 16.1 | 22.5 | 0.00 | 0.00 | 0.00 | 68 | 1014.8 |
| 20260510143952 | 12 | 36 | 11.3 | 22.5 | 0.00 | 0.00 | 0.00 | 68 | 1014.9 |
| 20260510143451 | 12 | 34 | 8.0 | 22.5 | 0.00 | 0.00 | 0.00 | 69 | 1015.0 |
| 20260510142952 | 12 | 70 | 16.1 | 24.1 | 0.00 | 0.00 | 0.00 | 70 | 1015.0 |
| 20260510142452 | 12 | 78 | 4.8 | 25.7 | 0.00 | 0.00 | 0.00 | 69 | 1015.1 |
| 20260510141952 | 12 | 11 | 8.0 | 25.7 | 0.00 | 0.00 | 0.00 | 69 | 1015.1 |
| 20260510141452 | 12 | 18 | 12.9 | 20.9 | 0.00 | 0.00 | 0.00 | 69 | 1015.1 |
| 20260510140953 | 12 | 47 | 11.3 | 20.9 | 0.00 | 0.00 | 0.00 | 70 | 1015.2 |
| 20260510140451 | 12 | 59 | 19.3 | 29.0 | 0.00 | 0.00 | 0.00 | 70 | 1015.2 |
| 20260510135951 | 12 | 24 | 20.9 | 29.0 | 0.00 | 0.00 | 0.00 | 69 | 1015.2 |
| 20260510135451 | 12 | 13 | 11.3 | 29.0 | 0.00 | 0.00 | 0.00 | 69 | 1015.2 |
| 20260510134953 | 12 | 80 | 11.3 | 27.4 | 0.00 | 0.00 | 0.00 | 70 | 1015.1 |
| 20260510134451 | 12 | 28 | 9.7 | 19.3 | 0.00 | 0.00 | 0.00 | 70 | 1015.2 |
| 20260510133452 | 12 | 42 | 3.2 | 20.9 | 0.00 | 0.00 | 0.00 | 71 | 1015.2 |
| 20260510132951 | 12 | 53 | 8.0 | 20.9 | 0.00 | 0.00 | 0.00 | 71 | 1015.3 |
| 20260510132451 | 12 | 62 | 9.7 | 25.7 | 0.00 | 0.00 | 0.00 | 71 | 1015.3 |
| 20260510131951 | 12 | 78 | 11.3 | 25.7 | 0.00 | 0.00 | 0.00 | 71 | 1015.4 |
| 20260510131451 | 12 | 57 | 14.5 | 22.5 | 0.00 | 0.00 | 0.00 | 72 | 1015.4 |
| 20260510130951 | 12 | 82 | 4.8 | 22.5 | 0.00 | 0.00 | 0.00 | 72 | 1015.4 |
| 20260510130451 | 11 | 55 | 11.3 | 22.5 | 0.00 | 0.00 | 0.00 | 73 | 1015.4 |
| 20260510125951 | 11 | 51 | 16.1 | 22.5 | 0.00 | 0.00 | 0.00 | 73 | 1015.4 |
| 20260510124451 | 11 | 45 | 14.5 | 20.9 | 0.00 | 0.00 | 0.00 | 73 | 1015.6 |
| 20260510123451 | 11 | 37 | 20.9 | 20.9 | 0.00 | 0.00 | 0.00 | 74 | 1015.7 |
| 20260510122953 | 11 | 55 | 9.7 | 24.1 | 0.00 | 0.00 | 0.00 | 73 | 1015.7 |
| 20260510122451 | 11 | 57 | 11.3 | 24.1 | 0.00 | 0.00 | 0.00 | 73 | 1015.7 |
| 20260510121951 | 11 | 55 | 17.7 | 27.4 | 0.00 | 0.00 | 0.00 | 74 | 1015.7 |
| 20260510121451 | 11 | 32 | 12.9 | 32.2 | 0.00 | 0.00 | 0.00 | 73 | 1015.7 |
| 20260510115451 | 12 | 10 | 11.3 | 27.4 | 0.00 | 0.00 | 0.00 | 72 | 1015.9 |
| 20260510114951 | 12 | 66 | 12.9 | 27.4 | 0.00 | 0.00 | 0.00 | 72 | 1015.8 |
| 20260510114451 | 12 | 46 | 19.3 | 27.4 | 0.00 | 0.00 | 0.00 | 73 | 1015.9 |
| 20260510113951 | 12 | 22 | 20.9 | 25.7 | 0.00 | 0.00 | 0.00 | 72 | 1015.9 |
| 20260510112451 | 12 | 67 | 14.5 | 27.4 | 0.00 | 0.00 | 0.00 | 72 | 1015.9 |
| 20260510111951 | 12 | 41 | 16.1 | 27.4 | 0.00 | 0.00 | 0.00 | 72 | 1016.0 |
| 20260510111451 | 12 | 60 | 6.4 | 27.4 | 0.00 | 0.00 | 0.00 | 72 | 1016.0 |
| 20260510110951 | 12 | 39 | 8.0 | 27.4 | 0.00 | 0.00 | 0.00 | 72 | 1016.2 |
| 20260510110451 | 12 | 55 | 14.5 | 22.5 | 0.00 | 0.00 | 0.00 | 71 | 1016.1 |
| 20260510105951 | 12 | 63 | 17.7 | 24.1 | 0.00 | 0.00 | 0.00 | 70 | 1016.2 |
| 20260510105451 | 12 | 56 | 8.0 | 24.1 | 0.00 | 0.00 | 0.00 | 71 | 1016.3 |
| 20260510104951 | 12 | 57 | 11.3 | 22.5 | 0.00 | 0.00 | 0.00 | 70 | 1016.3 |
| 20260510104451 | 12 | 69 | 14.5 | 27.4 | 0.00 | 0.00 | 0.00 | 70 | 1016.4 |
| 20260510103451 | 12 | 88 | 17.7 | 27.4 | 0.00 | 0.00 | 0.00 | 70 | 1016.4 |
| 20260510102951 | 12 | 65 | 14.5 | 25.7 | 0.00 | 0.00 | 0.00 | 70 | 1016.5 |
| 20260510102451 | 13 | 94 | 11.3 | 22.5 | 0.00 | 0.00 | 0.00 | 70 | 1016.5 |
| 20260510101951 | 13 | 37 | 19.3 | 22.5 | 0.00 | 0.00 | 0.00 | 68 | 1016.3 |
| 20260510101451 | 13 | 71 | 20.9 | 24.1 | 0.00 | 0.00 | 0.00 | 69 | 1016.4 |
| 20260510100951 | 13 | 80 | 4.8 | 24.1 | 0.00 | 0.00 | 0.00 | 70 | 1016.3 |
| 20260510095951 | 12 | 41 | 8.0 | 25.7 | 0.00 | 0.00 | 0.00 | 71 | 1016.4 |
| 20260510095451 | 13 | 46 | 19.3 | 24.1 | 0.00 | 0.00 | 0.00 | 69 | 1016.4 |
| 20260510094951 | 13 | 101 | 9.7 | 25.7 | 0.00 | 0.00 | 0.00 | 71 | 1016.4 |
| 20260510094451 | 13 | 15 | 14.5 | 29.0 | 0.00 | 0.00 | 0.00 | 69 | 1016.3 |
| 20260510093952 | 13 | 46 | 9.7 | 29.0 | 0.00 | 0.00 | 0.00 | 70 | 1016.4 |
| 20260510093451 | 12 | 63 | 22.5 | 24.1 | 0.00 | 0.00 | 0.00 | 72 | 1016.4 |
| 20260510092951 | 12 | 76 | 19.3 | 20.9 | 0.00 | 0.00 | 0.00 | 73 | 1016.4 |
| 20260510092451 | 12 | 53 | 14.5 | 20.9 | 0.00 | 0.00 | 0.00 | 73 | 1016.5 |
| 20260510091951 | 12 | 49 | 11.3 | 22.5 | 0.00 | 0.00 | 0.00 | 72 | 1016.5 |
| 20260510091451 | 12 | 65 | 19.3 | 24.1 | 0.00 | 0.00 | 0.00 | 73 | 1016.6 |
| 20260510090951 | 11 | 39 | 14.5 | 24.1 | 0.00 | 0.00 | 0.00 | 74 | 1016.6 |
| 20260510090451 | 11 | 62 | 14.5 | 25.7 | 0.00 | 0.00 | 0.00 | 75 | 1016.6 |
| 20260510085451 | 11 | 64 | 25.7 | 25.7 | 0.00 | 0.00 | 0.00 | 74 | 1016.9 |
| 20260510084951 | 11 | 86 | 6.4 | 20.9 | 0.00 | 0.00 | 0.00 | 74 | 1016.8 |
| 20260510084451 | 11 | 85 | 6.4 | 22.5 | 0.00 | 0.00 | 0.00 | 75 | 1016.9 |
| 20260510083951 | 11 | 34 | 19.3 | 30.6 | 0.00 | 0.00 | 0.00 | 74 | 1016.9 |
| 20260510083451 | 11 | 51 | 16.1 | 30.6 | 0.00 | 0.00 | 0.00 | 74 | 1016.9 |
| 20260510082951 | 11 | 80 | 8.0 | 30.6 | 0.00 | 0.00 | 0.00 | 74 | 1016.9 |
| 20260510082451 | 12 | 48 | 8.0 | 25.7 | 0.00 | 0.00 | 0.00 | 74 | 1016.9 |
| 20260510081951 | 12 | 42 | 6.4 | 25.7 | 0.00 | 0.00 | 0.00 | 75 | 1016.9 |
| 20260510081451 | 11 | 66 | 14.5 | 17.7 | 0.00 | 0.00 | 0.00 | 77 | 1017.0 |
| 20260510080951 | 11 | 24 | 16.1 | 22.5 | 0.00 | 0.00 | 0.00 | 78 | 1017.0 |
| 20260510080451 | 11 | 78 | 11.3 | 22.5 | 0.00 | 0.00 | 0.00 | 79 | 1017.0 |
| 20260510075951 | 10 | 32 | 16.1 | 24.1 | 0.00 | 0.00 | 0.00 | 80 | 1017.0 |
| 20260510075451 | 10 | 49 | 8.0 | 25.7 | 0.00 | 0.00 | 0.00 | 81 | 1017.0 |
| 20260510074951 | 10 | 51 | 20.9 | 25.7 | 0.00 | 0.00 | 0.00 | 85 | 1017.0 |
| 20260510073951 | 10 | 61 | 9.7 | 22.5 | 0.00 | 0.00 | 0.00 | 85 | 1017.0 |
| 20260510072451 | 9 | 60 | 16.1 | 24.1 | 0.00 | 0.00 | 0.00 | 86 | 1017.0 |
| 20260510071451 | 9 | 59 | 4.8 | 20.9 | 0.00 | 0.00 | 0.00 | 86 | 1017.0 |
| 20260510070951 | 8 | 51 | 6.4 | 27.4 | 0.00 | 0.00 | 0.00 | 87 | 1017.0 |
| 20260510070451 | 8 | 65 | 9.7 | 27.4 | 0.00 | 0.00 | 0.00 | 87 | 1016.9 |
| 20260510065951 | 8 | 38 | 6.4 | 19.3 | 0.00 | 0.00 | 0.00 | 87 | 1016.9 |
| 20260510065451 | 8 | 68 | 12.9 | 19.3 | 0.00 | 0.00 | 0.00 | 87 | 1016.8 |
| 20260510064951 | 8 | 49 | 4.8 | 20.9 | 0.00 | 0.00 | 0.00 | 87 | 1016.8 |
| 20260510064451 | 8 | 82 | 12.9 | 20.9 | 0.00 | 0.00 | 0.00 | 87 | 1016.8 |
| 20260510063951 | 8 | 39 | 4.8 | 19.3 | 0.00 | 0.00 | 0.00 | 87 | 1016.8 |
| 20260510063451 | 8 | 75 | 8.0 | 16.1 | 0.00 | 0.00 | 0.00 | 87 | 1016.8 |
| 20260510062950 | 8 | 69 | 4.8 | 16.1 | 0.00 | 0.00 | 0.00 | 87 | 1016.8 |
| 20260510062451 | 8 | 65 | 9.7 | 17.7 | 0.00 | 0.00 | 0.00 | 87 | 1016.8 |
| 20260510061951 | 8 | 74 | 4.8 | 17.7 | 0.00 | 0.00 | 0.00 | 87 | 1016.8 |
| 20260510060952 | 8 | 50 | 3.2 | 19.3 | 0.00 | 0.00 | 0.00 | 87 | 1016.7 |
| 20260510060451 | 8 | 27 | 16.1 | 20.9 | 0.00 | 0.00 | 0.00 | 87 | 1016.7 |
| 20260510055952 | 8 | 65 | 6.4 | 20.9 | 0.00 | 0.00 | 0.00 | 87 | 1016.6 |
| 20260510054451 | 8 | 58 | 1.6 | 19.3 | 0.00 | 0.00 | 0.00 | 87 | 1016.6 |
| 20260510053951 | 8 | 44 | 4.8 | 19.3 | 0.00 | 0.00 | 0.00 | 87 | 1016.6 |
| 20260510052951 | 8 | 64 | 4.8 | 24.1 | 0.00 | 0.00 | 0.00 | 87 | 1016.7 |
| 20260510052451 | 8 | 63 | 20.9 | 27.4 | 0.00 | 0.00 | 0.00 | 87 | 1016.7 |
| 20260510051951 | 8 | 59 | 3.2 | 27.4 | 0.00 | 0.00 | 0.00 | 87 | 1016.7 |
| 20260510051451 | 8 | 78 | 8.0 | 24.1 | 0.00 | 0.00 | 0.00 | 87 | 1016.7 |
| 20260510050951 | 8 | 30 | 14.5 | 24.1 | 0.00 | 0.00 | 0.00 | 87 | 1016.6 |
| 20260510050451 | 8 | 59 | 16.1 | 17.7 | 0.00 | 0.00 | 0.00 | 87 | 1016.7 |
| 20260510045951 | 8 | 52 | 8.0 | 24.1 | 0.00 | 0.00 | 0.00 | 87 | 1016.7 |
| 20260510044951 | 8 | 60 | 3.2 | 22.5 | 0.00 | 0.00 | 0.00 | 87 | 1016.7 |
| 20260510044451 | 8 | 360 | 9.7 | 22.5 | 0.00 | 0.00 | 0.00 | 87 | 1016.6 |
| 20260510043952 | 8 | 12 | 12.9 | 22.5 | 0.00 | 0.00 | 0.00 | 87 | 1016.6 |
| 20260510043451 | 8 | 18 | 12.9 | 22.5 | 0.00 | 0.00 | 0.00 | 87 | 1016.6 |
| 20260510042952 | 8 | 38 | 19.3 | 22.5 | 0.00 | 0.00 | 0.00 | 87 | 1016.6 |
| 20260510042451 | 8 | 43 | 3.2 | 19.3 | 0.00 | 0.00 | 0.00 | 87 | 1016.7 |
| 20260510041951 | 8 | 14 | 14.5 | 22.5 | 0.00 | 0.00 | 0.00 | 87 | 1016.6 |
| 20260510041451 | 8 | 44 | 8.0 | 22.5 | 0.00 | 0.00 | 0.00 | 87 | 1016.6 |
| 20260510040952 | 8 | 29 | 14.5 | 22.5 | 0.00 | 0.00 | 0.00 | 86 | 1016.6 |
| 20260510035451 | 8 | 30 | 9.7 | 22.5 | 0.00 | 0.00 | 0.00 | 86 | 1016.9 |
| 20260510034951 | 8 | 43 | 8.0 | 22.5 | 0.00 | 0.00 | 0.00 | 86 | 1016.9 |
| 20260510034451 | 8 | 33 | 8.0 | 20.9 | 0.00 | 0.00 | 0.00 | 86 | 1016.9 |
| 20260510033951 | 8 | 36 | 14.5 | 20.9 | 0.00 | 0.00 | 0.00 | 86 | 1016.8 |
| 20260510033451 | 8 | 62 | 16.1 | 19.3 | 0.00 | 0.00 | 0.00 | 86 | 1016.9 |
| 20260510032451 | 8 | 38 | 3.2 | 20.9 | 0.00 | 0.00 | 0.00 | 86 | 1017.0 |
| 20260510031951 | 8 | 21 | 6.4 | 20.9 | 0.00 | 0.00 | 0.00 | 86 | 1017.0 |
| 20260510030950 | 8 | 52 | 14.5 | 22.5 | 0.00 | 0.00 | 0.00 | 85 | 1017.0 |
| 20260510030450 | 8 | 42 | 6.4 | 19.3 | 0.00 | 0.00 | 0.00 | 85 | 1017.0 |
| 20260510025950 | 8 | 46 | 8.0 | 22.5 | 0.00 | 0.00 | 0.00 | 85 | 1017.0 |
| 20260510025450 | 8 | 46 | 19.3 | 22.5 | 0.00 | 0.00 | 0.00 | 85 | 1017.0 |
| 20260510024950 | 8 | 22 | 9.7 | 27.4 | 0.00 | 0.00 | 0.00 | 85 | 1016.9 |
| 20260510024451 | 8 | 42 | 14.5 | 27.4 | 0.00 | 0.00 | 0.00 | 85 | 1016.9 |
| 20260510023952 | 8 | 29 | 8.0 | 27.4 | 0.00 | 0.00 | 0.00 | 84 | 1016.9 |
| 20260510023450 | 8 | 31 | 8.0 | 24.1 | 0.00 | 0.00 | 0.00 | 84 | 1017.0 |
| 20260510022951 | 8 | 69 | 19.3 | 24.1 | 0.00 | 0.00 | 0.00 | 84 | 1016.9 |
| 20260510021951 | 9 | 46 | 8.0 | 25.7 | 0.00 | 0.00 | 0.00 | 83 | 1016.9 |
| 20260510021450 | 9 | 72 | 17.7 | 20.9 | 0.00 | 0.00 | 0.00 | 83 | 1016.9 |
| 20260510020951 | 9 | 51 | 16.1 | 24.1 | 0.00 | 0.00 | 0.00 | 83 | 1017.0 |
| 20260510020450 | 9 | 12 | 3.2 | 24.1 | 0.00 | 0.00 | 0.00 | 83 | 1017.0 |
| 20260510014951 | 9 | 49 | 4.8 | 24.1 | 0.00 | 0.00 | 0.00 | 82 | 1017.0 |
| 20260510014450 | 10 | 28 | 12.9 | 24.1 | 0.00 | 0.00 | 0.00 | 82 | 1017.1 |
| 20260510013451 | 10 | 32 | 6.4 | 20.9 | 0.00 | 0.00 | 0.00 | 81 | 1017.2 |
| 20260510012951 | 10 | 40 | 6.4 | 20.9 | 0.00 | 0.00 | 0.00 | 80 | 1017.3 |
| 20260510012450 | 10 | 17 | 17.7 | 19.3 | 0.00 | 0.00 | 0.00 | 80 | 1017.2 |
| 20260510011950 | 10 | 23 | 17.7 | 19.3 | 0.00 | 0.00 | 0.00 | 79 | 1017.2 |
| 20260510011450 | 10 | 28 | 9.7 | 19.3 | 0.00 | 0.00 | 0.00 | 79 | 1017.3 |
| 20260510010951 | 10 | 44 | 8.0 | 17.7 | 0.00 | 0.00 | 0.00 | 78 | 1017.3 |
| 20260510010451 | 10 | 62 | 4.8 | 17.7 | 0.00 | 0.00 | 0.00 | 77 | 1017.3 |
| 20260510005950 | 10 | 63 | 6.4 | 19.3 | 0.00 | 0.00 | 0.00 | 76 | 1017.2 |
| 20260510005451 | 10 | 22 | 12.9 | 20.9 | 0.00 | 0.00 | 0.00 | 75 | 1017.2 |
| 20260510004950 | 10 | 46 | 8.0 | 20.9 | 0.00 | 0.00 | 0.00 | 74 | 1017.1 |
| 20260510004450 | 10 | 37 | 17.7 | 20.9 | 0.00 | 0.00 | 0.00 | 74 | 1017.1 |
| 20260510003451 | 10 | 55 | 11.3 | 19.3 | 0.00 | 0.00 | 0.00 | 73 | 1017.1 |
| 20260510002950 | 11 | 24 | 4.8 | 22.5 | 0.00 | 0.00 | 0.00 | 72 | 1017.2 |
| 20260510001950 | 11 | 42 | 9.7 | 24.1 | 0.00 | 0.00 | 0.00 | 70 | 1017.2 |
| 20260510001452 | 11 | 63 | 20.9 | 24.1 | 0.00 | 0.00 | 0.00 | 69 | 1017.2 |
| 20260510000951 | 11 | 53 | 16.1 | 24.1 | 0.00 | 0.00 | 0.00 | 68 | 1017.2 |
| 20260510000450 | 11 | 30 | 16.1 | 20.9 | 0.00 | 0.00 | 0.00 | 67 | 1017.1 |
| 20260509235452 | 11 | 80 | 12.9 | 27.4 | 0.00 | 0.00 | 0.00 | 64 | 1017.0 |
| 20260509234950 | 11 | 35 | 9.7 | 27.4 | 0.00 | 0.00 | 0.00 | 63 | 1017.0 |
| 20260509233950 | 11 | 34 | 16.1 | 24.1 | 0.00 | 0.00 | 0.00 | 62 | 1017.0 |
| 20260509233452 | 11 | 55 | 8.0 | 24.1 | 0.00 | 0.00 | 0.00 | 63 | 1016.9 |
| 20260509232950 | 11 | 57 | 6.4 | 22.5 | 0.00 | 0.00 | 0.00 | 64 | 1016.9 |
| 20260509232450 | 11 | 55 | 9.7 | 22.5 | 0.00 | 0.00 | 0.00 | 64 | 1016.9 |
| 20260509231950 | 11 | 46 | 9.7 | 17.7 | 0.00 | 0.00 | 0.00 | 65 | 1016.9 |
| 20260509231450 | 11 | 57 | 11.3 | 17.7 | 0.00 | 0.00 | 0.00 | 65 | 1016.9 |
| 20260509230950 | 11 | 40 | 14.5 | 14.5 | 0.00 | 0.00 | 0.00 | 64 | 1016.8 |
| 20260509230450 | 11 | 26 | 3.2 | 11.3 | 0.00 | 0.00 | 0.00 | 64 | 1017.0 |
| 20260509225450 | 12 | 35 | 8.0 | 14.5 | 0.00 | 0.00 | 0.00 | 64 | 1016.8 |
| 20260509224950 | 12 | 56 | 4.8 | 14.5 | 0.00 | 0.00 | 0.00 | 64 | 1016.8 |
| 20260509224450 | 12 | 65 | 1.6 | 11.3 | 0.00 | 0.00 | 0.00 | 65 | 1016.8 |
| 20260509223450 | 12 | 21 | 1.6 | 11.3 | 0.00 | 0.00 | 0.00 | 66 | 1016.8 |
| 20260509222450 | 12 | 54 | 4.8 | 9.7 | 0.00 | 0.00 | 0.00 | 66 | 1016.8 |
| 20260509221950 | 12 | 55 | 1.6 | 6.4 | 0.00 | 0.00 | 0.00 | 66 | 1016.8 |
| 20260509221451 | 12 | 61 | 3.2 | 6.4 | 0.00 | 0.00 | 0.00 | 66 | 1016.7 |
| 20260509220950 | 12 | 64 | 1.6 | 6.4 | 0.00 | 0.00 | 0.00 | 66 | 1016.6 |
| 20260509220450 | 12 | 66 | 3.2 | 6.4 | 0.00 | 0.00 | 0.00 | 66 | 1016.7 |
| 20260509215950 | 12 | 63 | 3.2 | 6.4 | 0.00 | 0.00 | 0.00 | 66 | 1016.7 |
| 20260509215450 | 12 | 72 | 4.8 | 4.8 | 0.00 | 0.00 | 0.00 | 66 | 1016.6 |
| 20260509214950 | 12 | 68 | 1.6 | 4.8 | 0.00 | 0.00 | 0.00 | 65 | 1016.5 |
| 20260509214450 | 12 | 67 | 0.0 | 4.8 | 0.00 | 0.00 | 0.00 | 64 | 1016.6 |
| 20260509213950 | 13 | 67 | 1.6 | 6.4 | 0.00 | 0.00 | 0.00 | 63 | 1016.6 |
| 20260509212950 | 13 | 69 | 1.6 | 11.3 | 0.00 | 0.00 | 0.00 | 63 | 1016.6 |
| 20260509212450 | 13 | 85 | 3.2 | 4.8 | 0.00 | 0.00 | 0.00 | 63 | 1016.6 |
| 20260509211951 | 13 | 85 | 0.0 | 4.8 | 0.00 | 0.00 | 0.00 | 62 | 1016.5 |
| 20260509211450 | 13 | 87 | 1.6 | 3.2 | 0.00 | 0.00 | 0.00 | 61 | 1016.5 |
| 20260509210950 | 13 | 88 | 0.0 | 4.8 | 0.00 | 0.00 | 0.00 | 60 | 1016.4 |
| 20260509210450 | 14 | 88 | 0.0 | 4.8 | 0.00 | 0.00 | 0.00 | 59 | 1016.3 |
| 20260509205950 | 14 | 90 | 0.0 | 3.2 | 0.00 | 0.00 | 0.00 | 57 | 1016.2 |
| 20260509205450 | 15 | 88 | 0.0 | 8.0 | 0.00 | 0.00 | 0.00 | 56 | 1016.1 |
| 20260509204950 | 15 | 89 | 0.0 | 8.0 | 0.00 | 0.00 | 0.00 | 55 | 1016.1 |
| 20260509204450 | 15 | 79 | 3.2 | 3.2 | 0.00 | 0.00 | 0.00 | 56 | 1016.1 |
| 20260509202950 | 15 | 74 | 0.0 | 4.8 | 0.00 | 0.00 | 0.00 | 57 | 1015.9 |
| 20260509202450 | 15 | 75 | 1.6 | 4.8 | 0.00 | 0.00 | 0.00 | 57 | 1015.9 |
| 20260509201450 | 16 | 78 | 1.6 | 8.0 | 0.00 | 0.00 | 0.00 | 54 | 1015.8 |
| 20260509200950 | 16 | 88 | 3.2 | 8.0 | 0.00 | 0.00 | 0.00 | 53 | 1015.7 |
| 20260509200450 | 16 | 78 | 1.6 | 8.0 | 0.00 | 0.00 | 0.00 | 52 | 1015.7 |
| 20260509195950 | 16 | 78 | 1.6 | 12.9 | 0.00 | 0.00 | 0.00 | 52 | 1015.7 |
| 20260509194950 | 16 | 125 | 3.2 | 12.9 | 0.00 | 0.00 | 0.00 | 51 | 1015.5 |
| 20260509194450 | 16 | 85 | 0.0 | 9.7 | 0.00 | 0.00 | 0.00 | 51 | 1015.3 |
| 20260509193950 | 17 | 80 | 4.8 | 14.5 | 0.00 | 0.00 | 0.00 | 51 | 1015.3 |
| 20260509193450 | 17 | 92 | 3.2 | 14.5 | 0.00 | 0.00 | 0.00 | 51 | 1015.3 |
| 20260509192950 | 17 | 121 | 6.4 | 14.5 | 0.00 | 0.00 | 0.00 | 50 | 1015.2 |
| 20260509191950 | 17 | 77 | 8.0 | 8.0 | 0.00 | 0.00 | 0.00 | 51 | 1015.2 |
| 20260509191450 | 17 | 82 | 4.8 | 9.7 | 0.00 | 0.00 | 0.00 | 51 | 1015.2 |
| 20260509190950 | 17 | 95 | 3.2 | 9.7 | 0.00 | 0.00 | 0.00 | 52 | 1015.1 |